When you browse on this site, cookies collect data to enhance your experience and personalize the content and advertising you see.
Visit our Privacy Policy to learn more. By continuing to use the site, you agree to this use of cookies and data.
  • In Hungary
  • List of Countries
  • For 7 days
  • Water Temperature
  • Satellite Maps
  • Weather Map
  • News
  • Weather Widgets
  • user-avatar
    Login

    Hourly Weather Shavyady

    Today, 21 November, Wednesday

    Time Temperature Precipitation Wind Pressure Humidity
    00:00 -5°C° 0 mm 4 mps 749 mmHg 90%
    01:00 -5°C° 0 mm 4 mps 749 mmHg 89%
    02:00 -6°C° 0 mm 5 mps 748 mmHg 88%
    03:00 -6°C° 0 mm 5 mps 748 mmHg 87%
    04:00 -6°C° 0 mm 5 mps 747 mmHg 86%
    05:00 -8°C° 0.1 mm 6 mps 746 mmHg 86%
    06:00 -8°C° 0.1 mm 6 mps 746 mmHg 86%
    07:00 -8°C° 0.1 mm 6 mps 745 mmHg 86%
    08:00 -8°C° 0.3 mm 6 mps 744 mmHg 87%
    09:00 -8°C° 0.3 mm 6 mps 744 mmHg 89%
    10:00 -8°C° 0.3 mm 6 mps 743 mmHg 90%
    11:00 -6°C° 0.5 mm 6 mps 742 mmHg 90%
    12:00 -6°C° 0.5 mm 6 mps 742 mmHg 90%
    13:00 -6°C° 0.5 mm 6 mps 741 mmHg 91%
    14:00 -6°C° 0.4 mm 5 mps 740 mmHg 91%
    15:00 -6°C° 0.4 mm 5 mps 740 mmHg 91%
    16:00 -6°C° 0.4 mm 5 mps 739 mmHg 92%
    17:00 -6°C° 0.3 mm 5 mps 739 mmHg 92%
    18:00 -6°C° 0.3 mm 5 mps 739 mmHg 92%
    19:00 -5°C° 0.3 mm 5 mps 738 mmHg 92%
    20:00 -6°C° 0.2 mm 6 mps 738 mmHg 89%
    21:00 -6°C° 0.2 mm 6 mps 738 mmHg 87%
    22:00 -8°C° 0.2 mm 7 mps 738 mmHg 85%
    23:00 -8°C° 0.1 mm 6 mps 739 mmHg 85%

    Tomorrow, 22 November, Thursday

    Time Temperature Precipitation Wind Pressure Humidity
    00:00 -9°C° 0.1 mm 6 mps 739 mmHg 86%
    01:00 -8°C° 0.1 mm 5 mps 739 mmHg 86%
    02:00 -10°C° 0.1 mm 5 mps 740 mmHg 87%
    03:00 -10°C° 0.1 mm 5 mps 740 mmHg 89%
    04:00 -11°C° 0.1 mm 5 mps 740 mmHg 90%
    05:00 -11°C° 0.2 mm 5 mps 740 mmHg 89%
    06:00 -11°C° 0.2 mm 5 mps 740 mmHg 89%
    07:00 -11°C° 0.2 mm 5 mps 740 mmHg 88%
    08:00 -11°C° 0 mm 4 mps 741 mmHg 88%
    09:00 -11°C° 0 mm 4 mps 741 mmHg 89%
    10:00 -11°C° 0 mm 4 mps 741 mmHg 89%
    11:00 -11°C° 0 mm 4 mps 741 mmHg 88%
    12:00 -10°C° 0 mm 3 mps 741 mmHg 88%
    13:00 -10°C° 0 mm 3 mps 740 mmHg 87%
    14:00 -10°C° 0 mm 3 mps 740 mmHg 88%
    15:00 -10°C° 0 mm 2 mps 740 mmHg 90%
    16:00 -10°C° 0 mm 2 mps 740 mmHg 91%
    17:00 -12°C° 0 mm 2 mps 740 mmHg 92%
    18:00 -12°C° 0 mm 2 mps 739 mmHg 94%
    19:00 -12°C° 0 mm 2 mps 739 mmHg 95%
    20:00 -13°C° 0 mm 3 mps 738 mmHg 94%
    21:00 -12°C° 0 mm 4 mps 737 mmHg 94%
    22:00 -11°C° 0 mm 4 mps 737 mmHg 94%
    23:00 -11°C° 0.5 mm 5 mps 736 mmHg 93%

    Day after tomorrow, 23 November, Friday

    Time Temperature Precipitation Wind Pressure Humidity
    00:00 -10°C° 0.5 mm 6 mps 736 mmHg 93%
    01:00 -9°C° 0.5 mm 6 mps 735 mmHg 92%
    02:00 -8°C° 0.4 mm 6 mps 735 mmHg 93%
    03:00 -7°C° 0.4 mm 5 mps 734 mmHg 93%
    04:00 -7°C° 0.4 mm 5 mps 734 mmHg 93%
    05:00 -8°C° 0.4 mm 4 mps 734 mmHg 94%
    06:00 -8°C° 0.4 mm 4 mps 734 mmHg 94%
    07:00 -7°C° 0.4 mm 3 mps 734 mmHg 95%
    08:00 -7°C° 0.3 mm 3 mps 734 mmHg 94%
    09:00 -7°C° 0.3 mm 3 mps 734 mmHg 94%
    10:00 -7°C° 0.3 mm 3 mps 735 mmHg 93%
    11:00 -7°C° 0.2 mm 3 mps 735 mmHg 93%
    12:00 -7°C° 0.2 mm 3 mps 736 mmHg 92%
    13:00 -5°C° 0.2 mm 2 mps 736 mmHg 92%
    14:00 -7°C° 0.3 mm 3 mps 737 mmHg 92%
    15:00 -9°C° 0.3 mm 4 mps 738 mmHg 92%
    16:00 -10°C° 0.3 mm 5 mps 739 mmHg 91%
    17:00 -11°C° 0.1 mm 6 mps 740 mmHg 90%
    18:00 -12°C° 0.1 mm 6 mps 740 mmHg 88%
    19:00 -14°C° 0.1 mm 7 mps 741 mmHg 86%
    20:00 -15°C° 0 mm 7 mps 742 mmHg 85%
    21:00 -15°C° 0 mm 6 mps 743 mmHg 85%
    22:00 -16°C° 0 mm 6 mps 744 mmHg 84%
    23:00 -17°C° 0 mm 6 mps 744 mmHg 86%

    24 November, Saturday

    Time Temperature Precipitation Wind Pressure Humidity
    00:00 -18°C° 0 mm 5 mps 745 mmHg 88%
    01:00 -18°C° 0 mm 4 mps 746 mmHg 90%
    02:00 -19°C° 0 mm 4 mps 747 mmHg 92%
    03:00 -18°C° 0 mm 3 mps 747 mmHg 94%
    04:00 -19°C° 0 mm 3 mps 748 mmHg 96%
    05:00 -19°C° 0 mm 3 mps 748 mmHg 96%
    06:00 -18°C° 0 mm 2 mps 749 mmHg 97%
    07:00 -18°C° 0 mm 2 mps 749 mmHg 97%
    08:00 -18°C° 0 mm 3 mps 749 mmHg 97%
    09:00 -17°C° 0 mm 3 mps 749 mmHg 96%
    10:00 -17°C° 0 mm 4 mps 749 mmHg 96%
    11:00 -16°C° 0.1 mm 4 mps 749 mmHg 95%
    12:00 -15°C° 0.1 mm 5 mps 749 mmHg 94%
    13:00 -13°C° 0.1 mm 5 mps 749 mmHg 93%
    14:00 -14°C° 0.3 mm 6 mps 748 mmHg 93%
    15:00 -12°C° 0.3 mm 6 mps 748 mmHg 92%
    16:00 -11°C° 0.3 mm 6 mps 748 mmHg 92%
    17:00 -11°C° 0.3 mm 7 mps 748 mmHg 91%
    18:00 -11°C° 0.3 mm 7 mps 748 mmHg 90%
    19:00 -11°C° 0.3 mm 8 mps 747 mmHg 89%
    20:00 -11°C° 0.1 mm 7 mps 747 mmHg 89%
    21:00 -9°C° 0.1 mm 7 mps 747 mmHg 89%
    22:00 -9°C° 0.1 mm 7 mps 747 mmHg 89%
    23:00 -9°C° 0.1 mm 7 mps 747 mmHg 89%

    25 November, Sunday

    Time Temperature Precipitation Wind Pressure Humidity
    00:00 -9°C° 0.1 mm 7 mps 747 mmHg 89%
    01:00 -8°C° 0.1 mm 7 mps 747 mmHg 89%
    02:00 -8°C° 0.1 mm 7 mps 747 mmHg 89%
    03:00 -8°C° 0.1 mm 7 mps 747 mmHg 89%
    04:00 -8°C° 0.1 mm 7 mps 747 mmHg 90%
    05:00 -8°C° 0.1 mm 7 mps 747 mmHg 89%
    06:00 -8°C° 0.1 mm 7 mps 747 mmHg 89%
    07:00 -8°C° 0.1 mm 7 mps 747 mmHg 89%
    08:00 -8°C° 0.1 mm 7 mps 747 mmHg 89%
    09:00 -8°C° 0.1 mm 7 mps 747 mmHg 89%
    10:00 -8°C° 0.1 mm 7 mps 747 mmHg 89%
    11:00 -8°C° 0.2 mm 7 mps 746 mmHg 89%
    12:00 -7°C° 0.2 mm 7 mps 746 mmHg 89%
    13:00 -7°C° 0.2 mm 7 mps 746 mmHg 90%
    14:00 -7°C° 0.5 mm 7 mps 746 mmHg 90%
    15:00 -7°C° 0.5 mm 7 mps 746 mmHg 91%
    16:00 -7°C° 0.5 mm 7 mps 746 mmHg 92%
    17:00 -6°C° 0.4 mm 6 mps 746 mmHg 91%
    18:00 -6°C° 0.4 mm 6 mps 746 mmHg 91%
    19:00 -6°C° 0.4 mm 6 mps 746 mmHg 91%
    20:00 -6°C° 0.1 mm 6 mps 747 mmHg 91%
    21:00 -6°C° 0.1 mm 6 mps 747 mmHg 91%
    22:00 -6°C° 0.1 mm 5 mps 747 mmHg 90%
    23:00 -7°C° 0 mm 5 mps 748 mmHg 92%

    26 November, Monday

    Time Temperature Precipitation Wind Pressure Humidity
    00:00 -8°C° 0 mm 4 mps 748 mmHg 93%
    01:00 -9°C° 0 mm 4 mps 749 mmHg 94%
    02:00 -9°C° 0 mm 3 mps 749 mmHg 95%
    03:00 -10°C° 0 mm 3 mps 750 mmHg 96%
    04:00 -10°C° 0 mm 3 mps 750 mmHg 97%
    05:00 -10°C° 0 mm 2 mps 750 mmHg 97%
    06:00 -10°C° 0 mm 2 mps 751 mmHg 97%
    07:00 -10°C° 0 mm 2 mps 751 mmHg 97%
    08:00 -10°C° 0 mm 2 mps 751 mmHg 97%
    09:00 -9°C° 0 mm 2 mps 751 mmHg 96%
    10:00 -9°C° 0 mm 2 mps 751 mmHg 96%
    11:00 -9°C° 0 mm 3 mps 751 mmHg 95%
    12:00 -9°C° 0 mm 3 mps 751 mmHg 95%
    13:00 -8°C° 0 mm 3 mps 751 mmHg 94%
    14:00 -8°C° 0 mm 2 mps 751 mmHg 94%
    15:00 -8°C° 0 mm 2 mps 750 mmHg 95%
    16:00 -9°C° 0 mm 2 mps 750 mmHg 95%
    17:00 -8°C° 0 mm 2 mps 750 mmHg 96%
    18:00 -8°C° 0 mm 2 mps 749 mmHg 96%
    19:00 -7°C° 0 mm 2 mps 749 mmHg 96%
    20:00 -7°C° 0.4 mm 2 mps 748 mmHg 97%
    21:00 -6°C° 0.4 mm 2 mps 748 mmHg 97%
    22:00 -6°C° 0.4 mm 2 mps 747 mmHg 97%
    23:00 -5°C° 0.3 mm 2 mps 746 mmHg 96%
    Show more